Overview Statistics Trail Chart Weather Telemetry Raw packets
 

This is the latest recevied weather packets stored in our database for station/object VE1DX. If no packets are shown the sender has not sent any weather packets the latest 10 day(s).

<< 92 93 94 95 96 97 98 >>
Time Temp. Humidity Pressure Rain* Wind** Luminosity Snow
1787946917 24.44° C 91% 1018.3 hPa 0 mm - - -
1787946617 25° C 90% 1018.3 hPa 0 mm - - -
1787946317 25.56° C 89% 1018.3 hPa 0 mm - - -
1787946017 26.11° C 87% 1018.3 hPa 0 mm - - -
1787945717 26.11° C 86% 1018.3 hPa 0 mm - - -
1787945417 26.67° C 86% 1018.4 hPa 0 mm - - -
1787945117 26.67° C 85% 1018.3 hPa 0 mm - - -
1787944817 26.67° C 87% 1018.4 hPa 0 mm - - -
1787944517 26.11° C 88% 1018.4 hPa 0 mm - - -
1787944217 25.56° C 88% 1018.5 hPa 0 mm - - -
1787943917 25.56° C 88% 1018.5 hPa 0 mm - - -
1787943617 25.56° C 88% 1018.6 hPa 0 mm - - -
1787943317 25.56° C 86% 1018.7 hPa 0 mm - - -
1787943017 25.56° C 86% 1018.7 hPa 0 mm - - -
1787942717 25.56° C 87% 1018.8 hPa 0 mm - - -
1787942417 25.56° C 86% 1018.8 hPa 0 mm - - -
1787942117 25.56° C 83% 1019 hPa 0 mm - - -
1787941817 25.56° C 82% 1019 hPa 0 mm - - -
1787941517 25.56° C 82% 1019.1 hPa 0 mm - - -
1787941217 25.56° C 81% 1019.1 hPa 0 mm - - -
1787940917 25.56° C 81% 1019.1 hPa 0 mm - - -
1787940617 25.56° C 82% 1019.2 hPa 0 mm - - -
1787940317 25.56° C 82% 1019.2 hPa 0 mm - - -
1787940017 25.56° C 83% 1019.3 hPa 0 mm - - -
1787939717 25° C 81% 1019.3 hPa 0 mm - - -

* Rain latest hour (hover to see other rain measurements)
** Current wind speed in m/s (hover to see current wind gust speed)